Regional Weather Roundup
Issued by NWS

Home | Current Version | Previous Version | Graphics & Text | Print | Product List | Glossary Off
Versions: 1 2 3 4 5 6 7 8 9 10 11 12 13 14 15 16 17 18 19 20 21 22 23 24 25 26 27 28 29 30 31 32 33 34 35 36 37 38 39 40 41 42 43 44 45 46 47 48 49 50

000
ASUS43 KDTX 060010
RWRMI
MICHIGAN HOURLY REGIONAL WEATHER ROUNDUP
NATIONAL WEATHER SERVICE DETROIT/PONTIAC MI
800 PM EDT TUE MAY 05 2015

NOTE: "FAIR" INDICATES FEW OR NO CLOUDS BELOW 12,000 FEET WITH NO
SIGNIFICANT WEATHER AND/OR OBSTRUCTION TO VISIBILITY.

MIZ047>049-052>055-059>063-066>070-074>076-081>083-060100-
SOUTHEAST LOWER MICHIGAN

CITY           SKY/WX    TMP DP  RH WIND       PRES   REMARKS
ADRIAN         RAIN      50  49  96 E9        30.25S FOG
6HR MIN TEMP:  50; 6HR MAX TEMP:  54;

ALMA           CLOUDY    57  45  63 CALM      30.27F
ANN ARBOR      LGT RAIN  51  50  96 E5        30.25F FOG
BAD AXE        MOCLDY    57  46  65 CALM      30.28R
6HR MIN TEMP:  51; 6HR MAX TEMP:  57;

CARO           CLOUDY    56  45  67 CALM      30.27S
DETROIT CITY   LGT RAIN  50  48  93 NE7       30.27S FOG
6HR MIN TEMP:  50; 6HR MAX TEMP:  53; 6HR PCP:  0.22;

DETROIT        HVY RAIN  53  50  89 NE3       30.26F FOG
6HR MIN TEMP:  52; 6HR MAX TEMP:  55; 6HR PCP:  0.20;

FLINT          CLOUDY    55  47  74 E5        30.27S
6HR MIN TEMP:  52; 6HR MAX TEMP:  56; 6HR PCP:  0.19;

GROSSE ILE     LGT RAIN  52  48  87 CALM      30.26R
HILLSDALE      LGT RAIN  52  52 100 E7        30.23S
HOWELL         CLOUDY    52  51  98 NE5       30.25F
6HR MIN TEMP:  49; 6HR MAX TEMP:  52;


CITY           SKY/WX    TMP DP  RH WIND       PRES   REMARKS
JACKSON        RAIN      50  48  93 E7        30.25S FOG
6HR MIN TEMP:  49; 6HR MAX TEMP:  51; 6HR PCP:  0.34;

LAMBERTVILLE   CLOUDY    52  48  87 NE3       30.25F
LANSING        CLOUDY    52  50  93 NE7       30.26F
6HR MIN TEMP:  49; 6HR MAX TEMP:  53; 6HR PCP:  0.26;

LAPEER         CLOUDY    54  50  87 CALM      30.27R
MASON          CLOUDY    50  48  93 NE5       30.25F
MONROE         LGT RAIN  52  48  87 E7        30.23F
MT. CLEMENS    CLOUDY    50  48  93 CALM      30.24S FOG
6HR MIN TEMP:  50; 6HR MAX TEMP:  54; 6HR PCP:  0.13;

PONTIAC        LGT RAIN  52  51  97 NE3       30.25F FOG
6HR MIN TEMP:  51; 6HR MAX TEMP:  52;

PORT HOPE        N/A     42  38  85 CALM      30.27S
6HR MIN TEMP:  42; 6HR MAX TEMP:  47;

PORT HURON     CLOUDY    48  46  93 CALM      30.28R FOG
TRI CITIES     MOCLDY    58  43  57 E6        30.28S
6HR MIN TEMP:  58; 6HR MAX TEMP:  60; 6HR PCP: TRACE;

MIDLAND        FAIR      59  39  47 E7        30.27S
TROY           RAIN      53  52  97 NE5       30.28S
SAGINAW HB     MOCLDY    57  45  62 NE5       30.27S
$$
MIZ043>046-050>051-056>058-064>065-071>073-077>080-060100-
SOUTHWEST LOWER MICHIGAN

CITY           SKY/WX    TMP DP  RH WIND       PRES   REMARKS
BATTLE CREEK   CLOUDY    51  49  92 E5        30.24S
6HR MIN TEMP:  49; 6HR MAX TEMP:  51; 6HR PCP:  0.10;

BENTON HARBOR  CLOUDY    53  51  93 E8        30.19F
6HR MIN TEMP:  53; 6HR MAX TEMP:  56; 6HR PCP:  0.01;

BIG RAPIDS     MOCLDY    62  28  28 SE10      30.24F
6HR MIN TEMP:  58; 6HR MAX TEMP:  64;

COLDWATER      CLOUDY    52  51  96 E9        30.22S FOG
6HR MIN TEMP:  52; 6HR MAX TEMP:  54;

FREMONT        FAIR      59  33  37 E5        30.24S
HOLLAND        LGT RAIN  53  50  89 E10       30.23F
6HR MIN TEMP:  50; 6HR MAX TEMP:  53; 6HR PCP:  0.10;

GRAND RAPIDS   CLOUDY    54  49  83 E8        30.24F
6HR MIN TEMP:  49; 6HR MAX TEMP:  55; 6HR PCP:  0.21;

IONIA          CLOUDY    55  47  77 E7        30.25S
KALAMAZOO      LGT RAIN  52  49  89 VRB5      30.23F
6HR MIN TEMP:  50; 6HR MAX TEMP:  52; 6HR PCP:  0.02;

LUDINGTON      MOCLDY    58  34  39 SW5       30.24S
6HR MIN TEMP:  58; 6HR MAX TEMP:  69;

MARSHALL       LGT RAIN  49  48  96 E6        30.23S
MOUNT PLEASANT MOCLDY    59  44  55 S3        30.26S
6HR MIN TEMP:  55; 6HR MAX TEMP:  64;

MUSKEGON       MOCLDY    60  45  57 E10       30.23F
6HR MIN TEMP:  53; 6HR MAX TEMP:  63; 6HR PCP: TRACE;

SOUTH HAVEN    CLOUDY    53  51  90 E8        30.21F
$$
MIZ016>042-060100-
NORTHERN LOWER MICHIGAN

CITY           SKY/WX    TMP DP  RH WIND       PRES   REMARKS
ALPENA         CLEAR     56  43  61 SE6       30.28S
6HR MIN TEMP:  56; 6HR MAX TEMP:  66;

BEAVER ISLAND  CLEAR     59  33  37 CALM      30.26S
6HR MIN TEMP:  59; 6HR MAX TEMP:  67;

BELLAIRE       PTCLDY    65  29  25 CALM      30.23S
6HR MIN TEMP:  65; 6HR MAX TEMP:  71;

CADILLAC       MOCLDY    61  21  21 E6        30.24S
CHARLEVOIX     PTCLDY    53  32  44 CALM      30.28S
6HR MIN TEMP:  52; 6HR MAX TEMP:  61;

FRANKFORT      CLOUDY    62  23  22 NE3       30.23S
GAYLORD        PTCLDY    64  18  17 NE8       30.25S
6HR MIN TEMP:  61; 6HR MAX TEMP:  68;

GRAYLING       MOCLDY    64  24  22 CALM      30.25S
6HR MIN TEMP:  63; 6HR MAX TEMP:  69;

HARBOR SPRINGS CLEAR     65  24  21 E7        30.25F
HOUGHTON LAKE  MOCLDY    62  29  28 CALM      30.25S
6HR MIN TEMP:  62; 6HR MAX TEMP:  68;

MANISTEE       CLOUDY    52  36  54 W6        30.24S
OSCODA         PTCLDY    47  40  76 E3        30.28R
PELLSTON       CLEAR     65  24  21 E7        30.26F
6HR MIN TEMP:  65; 6HR MAX TEMP:  70;

ROGERS CITY    CLEAR     54  43  67 CALM      30.28F
TRAVERSE CITY  CLOUDY    53  33  46 N3        30.24S
6HR MIN TEMP:  53; 6HR MAX TEMP:  68;

$$
MIZ007>008-015-060100-
EASTERN UPPER MICHIGAN

CITY           SKY/WX    TMP DP  RH WIND       PRES   REMARKS
KINROSS        CLEAR     63  28  27 NW6       30.26F
6HR MIN TEMP:  63; 6HR MAX TEMP:  66;

MACKINAC ISLAN CLEAR     62  30  30 CALM      30.26S
6HR MIN TEMP:  61; 6HR MAX TEMP:  65;

NEWBERRY       CLEAR     62  30  29 E5        30.26S
S. S. MARIE    CLEAR     63  28  26 W7        30.25F
6HR MIN TEMP:  63; 6HR MAX TEMP:  68;

MUNISING         N/A     51  32  48 CALM      30.25S
6HR MIN TEMP:  48; 6HR MAX TEMP:  56;

$$
MIZ004>006-011>014-085-060100-
CENTRAL UPPER MICHIGAN

CITY           SKY/WX    TMP DP  RH WIND       PRES   REMARKS
MANISTIQUE     CLEAR     61  24  24 CALM      30.25F
6HR MIN TEMP:  60; 6HR MAX TEMP:  64;

ESCANABA       CLEAR     63  27  25 CALM      30.24F
6HR MIN TEMP:  55; 6HR MAX TEMP:  63;

MENOMINEE      MOCLDY    57  32  38 CALM      30.25S
6HR MIN TEMP:  57; 6HR MAX TEMP:  63;

SAWYER-GWINN   CLEAR     64  27  24 S12       30.24F
$$
MIZ001>003-009>011-084-060100-
WESTERN UPPER MICHIGAN

CITY           SKY/WX    TMP DP  RH WIND       PRES   REMARKS
IRON MOUNTAIN  PTCLDY    64  28  25 SE10      30.23S
6HR MIN TEMP:  64; 6HR MAX TEMP:  70;

HOUGHTON       SUNNY     56  26  31 E14       30.22S
6HR MIN TEMP:  56; 6HR MAX TEMP:  69;

COPPER HARBOR    N/A     61  26  26 S5        30.23S
6HR MIN TEMP:  44; 6HR MAX TEMP:  68;

IRONWOOD       SUNNY     72  30  21 S10       30.13S
6HR MIN TEMP:  68; 6HR MAX TEMP:  73;

$$

ABBREVIATIONS USED IN REMARKS
   TC - TEMPERATURE IN CELSIUS
  WCI - WIND CHILL INDEX
   HX - HEAT INDEX
  VSB - VISIBILITY



USA.gov is the U.S. government's official web portal to all federal, state and local government web resources and services.